Flag for Germany Weather past 2 weeks in Bernburg (Saale), Saxony-Anhalt, Germany

Now
60 °F

Overcast.


Feels Like: 60 °F
Forecast: 55 / 72 °F
Wind: 1 mph from South

Location: Magdeburg

Current Time: Aug 29, 2014 at 5:37:12 AM

Latest Report: Aug 29, 2014 at 4:00 AM


Visibility: 14 mi

Pressure: 29.96 "Hg

Humidity: 76%

Dew point: 52 °F

Location of Bernburg (Saale)Location

Historic Weather in Bernburg (Saale) — Graph

°F

Bernburg (Saale) temperature yesterday

Maximum temperature yesterday: 75 °F (at 6:00 PM)
Minimum temperature yesterday: 46 °F (at 6:00 AM)
Average temperature yesterday: 61 °F

Past Weeks' High & Low Weather Summary

 TemperatureHumidityPressure
High75 °F (Aug 28, 6:00 PM)97% (Aug 26, 4:00 AM)30.08 "Hg (Aug 26, 4:00 AM)
Low45 °F (Aug 25, 7:00 AM)31% (Aug 28, 4:00 PM)29.62 "Hg (Aug 18, 3:00 PM)
Average59 °F70%29.90 "Hg
* Reported Aug 14 4:00 AM — Aug 29 4:00 AM, Bernburg (Saale), Weather by CustomWeather, © 2014

Note: Actual official high and low records may vary slightly from our data, if they occured in-between our weather recording intervals... More about our weather records

Advertising

Bernburg (Saale) weather history for previous 24 hours

 ConditionsComfort  
Time TempWeatherWind HumidityBarometerVisibility
4:00 AM
Aug 29
60 °FOvercast.1 mph76%29.96 "Hg14 mi
3:00 AM59 °FOvercast.1 mph75%29.97 "Hg15 mi
2:00 AM60 °FPassing clouds.1 mph74%29.99 "Hg19 mi
1:00 AM62 °FOvercast.1 mph70%29.99 "Hg22 mi
12:00 AM61 °FOvercast.1 mph73%30.00 "Hg22 mi
10:00 PM
Aug 28
63 °FOvercast.1 mph71%30.00 "Hg25 mi
9:00 PM64 °FOvercast.1 mph70%30.00 "Hg28 mi
8:00 PM67 °FPartly sunny.1 mph62%29.99 "Hg31 mi
7:00 PM74 °FScattered clouds.1 mph41%29.99 "Hg43 mi
6:00 PM75 °FScattered clouds.1 mph33%29.99 "Hg43 mi
4:00 PM74 °FPassing clouds.2 mph31%30.02 "Hg37 mi
3:00 PM73 °FPassing clouds.1 mph34%30.03 "Hg37 mi
2:00 PM73 °FPassing clouds.2 mph35%30.04 "Hg37 mi
1:00 PM72 °FScattered clouds.2 mph39%30.05 "Hg31 mi
12:00 PM69 °FPassing clouds.2 mph39%30.07 "Hg31 mi
10:00 AM63 °FSunny.2 mph61%30.08 "Hg28 mi
9:00 AM59 °FSunny.1 mph73%30.08 "Hg28 mi
8:00 AM51 °FSunny.1 mph96%30.08 "Hg22 mi
7:00 AM46 °FSunny.1 mph96%30.07 "Hg28 mi
6:00 AM46 °FClear.1 mph96%30.07 "Hg25 mi
Weather by CustomWeather, © 2014

See weather overviewHow to use our weather pages